SCP
0 0 0 0 0 0 0 0 0 0 0 0 0 0 0 0 0 0 0 0 0 0 0 0 0 0 0 0 0 0 0 0 0 0 0 2 4 3 2 4 3 2 2 2
0 0 0 0 0 0 0 0 0 0 0 0 0 0 0 0 0 0 0 0 0 0 0 0 0 0 0 0 0 0 0 0 0 0 0 1 2 2 2 2 3 3 2 3
0 0 0 0 0 0 0 0 0 0 0 0 0 0 0 0 0 0 0 0 0 0 0 0 0 0 0 0 0 0 0 0 0 0 0 0 1 2 2 3 2 3 3 3
0 0 0 0 0 0 0 0 0 0 0 0 0 0 0 0 0 0 0 0 0 0 0 0 0 0 0 0 0 0 0 0 0 0 0 0 1 2 2 2 2 3 3 3
0 0 0 0 0 0 0 0 0 0 0 0 0 0 0 0 0 0 0 0 0 0 0 0 0 0 0 0 0 0 0 0 0 0 0 0 0 3 2 2 2 2 2 3
0 0 0 0 0 0 0 0 0 0 0 0 0 0 0 0 0 0 0 0 0 0 0 0 0 0 0 0 0 0 0 0 0 0 0 0 0 0 3 2 2 2 3 3
0 0 0 0 0 0 0 0 0 0 0 0 0 0 0 0 0 0 0 0 0 0 0 0 0 0 0 0 0 0 0 0 0 0 0 0 0 0 1 2 2 2 3 2
0 0 0 0 0 0 0 0 0 0 0 0 0 0 0 0 0 0 0 0 0 0 0 0 0 0 0 0 0 0 0 0 0 0 0 0 0 0 1 2 2 2 2 2
0 0 0 0 0 0 0 0 0 0 0 0 0 0 0 0 0 0 0 0 0 0 0 0 0 0 0 0 0 0 0 0 0 0 0 0 0 0 1 1 2 2 2 2
0 0 0 0 0 0 0 0 0 0 0 0 0 0 0 0 0 0 0 0 0 -0 0 0 0 0 0 0 0 0 0 0 0 0 0 0 0 0 1 2 2 2 2 2
0 0 0 0 0 0 0 0 0 0 0 0 0 0 0 0 0 0 0 0 -0 -0 -0 -0 -0 0 0 0 0 0 0 0 0 0 0 0 0 0 0 1 2 2 2 1
0 0 0 0 0 0 0 0 0 0 0 0 0 0 0 0 0 0 0 0 0 0 0 0 0 0 0 0 0 0 0 -0 0 0 0 0 0 0 0 1 1 2 2 2
0 0 0 0 0 0 0 0 0 0 0 0 0 0 0 0 0 0 0 0 0 0 0 0 0 0 -0 0 0 0 0 0 0 0 0 0 0 0 0 0 1 1 1 1
0 0 0 0 0 0 0 0 0 0 0 0 0 0 0 0 0 0 0 0 0 0 0 0 -0 -0 0 0 -0 -0 0 -0 -0 -0 -0 -0 0 0 0 0 0 0 0 0
0 0 0 0 0 0 0 0 0 0 0 0 0 0 0 0 0 0 0 0 0 0 0 0 0 0 -0 -0 -0 -0 -0 0 -0 -0 -0 -0 -0 0 0 0 0 0 0 0
0 0 0 0 0 0 0 0 0 0 0 0 0 0 0 0 0 0 0 0 0 0 0 0 0 -0 -0 -0 -0 -0 -0 -0 -0 -0 -0 0 0 0 0 0 0 0 0 0
0 0 0 0 0 0 0 0 0 0 0 0 0 0 0 0 0 0 0 0 0 0 -0 0 -0 -0 -0 -0 -0 -0 -0 -0 0 -0 0 -0 -0 0 0 0 0 0 0 0
0 0 0 0 0 0 0 0 0 0 0 0 0 -0 0 0 0 0 0 0 0 -0 -0 -0 -0 -0 -0 -0 -0 -0 -0 -0 -0 0 0 -0 -0 -0 -0 0 -0 -0 -0 0
0 0 0 0 0 0 0 0 0 0 0 0 0 0 0 -0 0 0 0 0 0 0 0 -0 -0 -0 -0 -0 -0 -0 -0 -0 -0 -0 0 0 -0 -0 -0 -0 0 0 0 -0
-0 -0 0 0 0 0 0 0 0 0 0 0 0 -0 0 0 -0 0 0 0 0 0 -0 -0 -0 -0 -0 -0 -0 -0 -0 -0 -0 -0 -0 0 0 0 0 0 0 0 0 0
-0 -0 0 0 0 0 0 -0 -0 0 -0 -0 -0 -0 0 -0 0 -0 0 0 0 0 -0 -0 -0 -0 -0 -0 -0 -0 -0 -0 -0 -0 -0 -0 -0 0 0 0 0 0 0 0
-0 -0 -0 0 0 0 -0 -0 -0 -0 0 -0 0 0 -0 -0 0 0 0 0 0 -0 -0 -0 -0 -0 -0 -0 -0 -0 -0 -0 -0 -0 -0 -0 -0 0 0 0 0 0 0 0
0 0 0 -0 -0 0 0 0 -0 -0 -0 0 0 0 0 0 0 0 0 -0 -0 -0 -0 -0 -0 -0 -0 -0 -0 -0 -0 0 0 -0 -0 -0 -0 -0 -0 -0 0 0 0 0
-0 0 0 0 0 -0 0 -0 -0 0 0 0 0 0 0 0 0 0 0 -0 -0 -0 -0 -0 -0 -0 -0 -0 -0 -0 -0 -0 -0 -0 -0 -0 -0 -0 -0 0 0 0 0 0
0 0 0 0 0 -0 0 0 0 0 0 0 0 0 0 0 0 0 0 0 0 -0 -0 -0 -0 -0 -0 -0 -0 -0 -0 0 0 0 0 0 0 0 -0 -0 0 0 0 0
0 0 0 0 0 0 0 -0 -0 0 0 0 0 0 0 0 0 0 0 0 0 0 0 -0 -0 -0 -0 -0 -0 -0 -0 -0 0 0 0 0 -0 -0 -0 -0 -0 -0 -0 -0
Wind_Speed_500mb
40 27 40 43 39 43 29 30 35 30 28 29 32 36 31 31 37 38 35 30 15 6 6 11 15 18 21 22 25 34 42 40 43 52 44 50 68 76 67 72 84 82 82 75
27 45 45 38 36 33 33 35 35 27 23 19 31 35 34 34 33 32 26 11 6 3 9 15 21 24 27 28 29 29 30 35 38 37 40 51 55 60 67 63 71 90 90 85
45 20 18 31 36 37 37 37 31 29 28 32 36 42 33 3 7 15 12 12 8 10 17 24 28 28 30 32 36 39 39 38 38 42 47 53 55 59 59 61 68 96 101 99
33 42 23 26 40 32 36 33 30 32 25 19 5 12 12 14 15 19 14 11 12 17 21 27 34 38 39 38 38 41 46 50 49 43 40 43 55 69 71 66 73 86 104 106
25 20 32 41 36 28 27 21 27 28 26 26 30 16 15 19 25 18 14 13 15 20 26 32 37 41 42 44 46 48 53 56 57 56 50 49 53 66 70 65 66 77 91 100
36 7 13 19 31 35 16 20 21 21 21 24 33 25 19 25 14 18 13 12 16 22 27 31 35 40 42 44 49 53 57 59 60 63 59 59 61 62 69 73 68 75 83 94
32 30 8 8 16 15 23 21 16 17 15 21 2 18 20 15 7 12 7 12 19 25 31 34 38 41 41 46 50 53 57 62 62 62 62 63 66 61 75 78 72 70 74 88
25 19 20 7 13 16 27 30 20 22 21 10 8 14 7 20 24 23 15 13 19 26 31 36 40 43 45 47 49 56 59 61 60 58 57 60 64 71 68 87 85 69 67 82
17 11 6 11 4 5 14 19 7 12 16 17 21 15 17 19 23 17 13 16 19 24 29 36 42 44 47 50 53 60 60 60 57 50 50 55 61 68 69 78 87 76 63 66
5 4 4 4 3 3 8 6 6 9 10 25 18 23 11 22 13 11 12 18 23 27 33 38 42 43 42 45 52 55 51 54 50 43 39 43 39 44 60 66 76 81 65 66
12 19 10 2 13 18 10 11 10 10 12 14 21 12 13 18 7 7 14 20 24 29 33 39 42 41 40 43 49 53 50 50 44 35 26 25 28 39 52 55 63 71 69 71
5 3 16 15 2 12 15 19 21 16 19 16 18 21 9 13 9 13 19 18 22 26 31 35 42 42 42 47 52 54 50 44 41 25 20 11 20 32 32 40 49 57 66 70
13 8 10 9 9 7 13 14 12 7 7 24 22 5 19 13 5 8 17 16 18 23 30 35 41 43 51 56 56 55 51 50 41 32 21 8 7 16 22 16 28 36 48 61
8 9 15 16 11 3 12 23 19 16 11 23 31 38 24 19 30 11 14 16 18 22 29 36 39 46 54 57 55 53 50 45 40 36 29 21 12 4 15 5 5 13 23 45
4 11 16 17 14 13 18 23 30 35 34 33 35 40 33 35 34 8 5 9 14 22 29 34 40 48 54 54 53 52 49 47 41 39 38 35 27 15 5 22 18 13 16 28
5 4 6 18 19 22 28 33 38 38 36 43 46 49 40 43 9 3 5 9 15 21 27 30 36 46 49 52 52 51 53 53 49 47 44 44 38 30 11 16 24 35 37 46
11 8 8 11 7 12 23 35 32 32 24 25 30 34 34 7 9 5 6 11 13 20 23 30 38 39 44 49 50 52 53 53 57 57 52 51 48 48 39 19 9 23 41 54
11 13 8 7 6 13 7 13 9 15 24 7 22 33 18 26 23 16 15 11 16 17 21 28 32 37 43 45 50 53 56 57 61 63 65 60 59 57 51 46 39 35 40 47
21 18 9 8 15 14 10 3 7 8 5 8 10 8 29 38 33 25 15 17 15 16 22 24 28 37 43 50 53 58 63 66 66 69 69 69 66 65 63 64 58 51 34 42
17 23 14 8 9 7 8 15 16 10 16 10 12 17 28 26 8 7 10 15 19 23 27 30 34 39 46 51 56 61 67 71 75 72 69 68 69 74 73 69 68 64 56 54
12 13 21 18 9 2 12 28 20 12 9 12 12 21 26 4 16 26 17 21 24 26 29 32 39 47 50 50 52 60 62 67 66 67 70 73 74 74 74 74 74 74 73 70
9 12 8 8 9 6 32 2 10 7 11 13 20 29 40 34 32 26 24 25 25 28 31 34 35 42 45 50 54 56 59 55 55 60 64 67 69 70 72 74 75 75 73 74
5 7 3 8 8 11 15 16 12 12 14 18 26 29 36 35 29 27 28 29 30 31 31 30 33 36 42 45 47 52 51 47 48 52 58 59 58 61 62 64 66 69 69 70
6 4 2 12 10 13 14 16 18 19 21 23 24 27 31 33 29 29 29 28 29 29 30 30 34 39 41 41 44 44 42 44 47 51 52 54 57 56 56 58 58 57 58 55
5 8 5 9 14 15 17 14 16 21 24 27 28 28 29 31 30 30 29 28 27 27 30 31 34 37 39 38 43 44 41 38 42 45 45 45 46 47 53 58 56 54 51 45
7 5 5 6 9 11 12 11 14 19 21 22 28 30 29 31 32 31 31 29 28 29 28 30 33 34 38 40 44 47 46 43 42 43 45 45 42 42 39 35 45 50 45 40
Wind_Direction_500mb
210 224 225 232 227 255 267 271 268 270 269 275 266 265 266 257 252 254 257 250 253 271 317 336 341 339 330 321 302 282 271 270 256 245 243 239 238 241 235 235 237 236 240 240
206 234 239 235 244 240 247 258 260 272 270 269 266 275 277 265 250 254 255 204 187 340 357 354 350 342 333 325 315 306 295 282 273 258 247 243 242 240 240 233 232 239 240 241
216 246 264 228 230 233 235 245 256 266 286 275 267 271 255 211 176 173 156 132 98 38 0 349 348 345 340 332 320 310 304 293 285 271 261 241 241 240 238 233 237 237 237 239
236 252 224 224 234 221 242 234 255 256 259 261 148 285 197 227 162 173 149 110 56 23 6 353 344 339 338 331 326 316 304 297 289 282 273 262 242 239 236 236 240 241 232 234
219 232 236 234 232 213 250 256 246 244 251 263 254 254 248 167 177 158 129 77 44 18 1 349 340 335 332 329 324 315 308 302 289 279 274 264 255 241 238 239 237 238 235 230
252 215 231 252 235 243 268 230 231 243 250 249 245 228 272 173 179 129 110 65 27 4 350 340 333 329 325 324 319 313 307 303 294 280 274 268 254 247 239 237 236 232 231 228
210 215 191 223 197 187 218 228 230 222 210 243 92 213 248 137 87 64 103 35 5 353 346 341 339 335 329 326 322 318 310 305 296 285 276 270 262 248 236 235 233 229 226 228
209 198 203 155 247 243 214 229 245 257 247 258 178 239 138 104 115 101 79 30 356 350 343 339 336 332 327 325 323 323 318 310 296 288 278 271 264 254 240 229 229 229 228 230
209 183 89 60 15 287 189 225 343 280 261 269 253 212 142 138 141 120 61 15 356 343 340 336 335 334 332 329 326 327 321 313 302 292 285 275 264 252 234 226 227 227 228 231
90 236 222 141 230 113 285 63 192 218 253 254 246 241 235 172 126 58 15 354 350 347 347 344 341 334 332 327 328 329 325 316 312 304 295 285 250 235 226 221 222 224 227 226
175 226 140 203 212 251 193 215 232 298 263 270 280 277 42 93 105 18 7 1 358 354 351 345 341 336 337 334 336 336 333 329 327 321 321 296 237 236 218 221 228 228 227 232
166 209 229 212 338 261 253 258 253 238 240 247 286 276 119 103 53 6 7 0 353 350 348 346 344 340 348 347 347 346 343 338 342 338 335 326 230 238 241 228 232 232 226 230
167 197 200 198 206 199 218 212 203 224 250 250 248 230 124 141 135 6 338 347 349 346 347 352 348 348 2 358 354 352 350 351 356 358 359 1 211 216 192 232 236 236 231 234
159 214 247 257 37 62 197 192 204 206 234 251 247 273 265 273 309 329 318 343 350 354 355 356 349 360 8 7 3 1 360 2 6 14 11 26 26 117 149 135 132 214 236 233
175 238 240 254 259 247 253 237 234 240 241 255 274 277 285 287 301 355 304 357 1 1 359 357 357 7 9 6 10 13 15 17 18 27 30 28 38 71 282 229 242 198 201 222
148 217 254 260 259 253 259 257 254 257 262 269 276 278 283 301 100 200 17 30 17 6 0 357 5 14 9 8 12 21 26 31 34 43 47 45 39 45 86 175 194 205 212 202
183 185 207 246 254 272 267 249 251 253 261 258 258 271 291 198 170 135 85 47 23 13 359 10 17 13 16 20 23 28 33 40 47 52 54 61 62 57 47 53 150 176 179 183
196 195 213 269 224 242 75 53 322 284 282 270 288 289 286 132 114 95 69 58 40 19 17 24 25 26 31 33 39 41 42 45 50 55 58 61 65 70 72 69 72 89 116 114
224 213 226 247 224 300 205 73 350 319 293 21 302 84 119 125 118 72 60 66 58 43 42 44 43 44 45 47 47 49 51 52 52 52 57 61 65 70 75 76 75 72 70 95
203 224 209 181 261 260 67 332 322 270 241 24 312 161 150 161 182 102 82 77 70 64 62 58 58 58 57 54 55 55 55 56 55 55 58 62 65 68 69 71 75 76 73 71
148 192 217 222 255 157 355 325 321 210 42 357 307 173 175 97 75 125 108 85 78 74 70 62 60 59 57 56 56 59 58 59 62 64 65 66 68 69 73 76 76 76 76 78
186 183 189 212 229 238 5 350 352 54 51 52 63 111 110 108 106 111 102 90 82 73 67 56 53 55 59 59 57 57 58 58 61 65 67 69 70 72 73 75 75 76 77 77
192 343 43 356 50 58 39 47 35 69 84 73 88 98 113 114 114 108 98 89 80 71 62 56 56 52 51 53 56 56 53 58 63 65 66 65 68 69 69 71 73 73 73 72
128 7 119 192 84 64 65 64 67 78 89 96 102 110 119 114 112 104 95 83 75 66 60 57 57 54 48 45 49 50 50 53 58 62 63 64 64 63 66 67 64 65 64 63
8 315 77 89 125 119 75 73 94 99 102 104 106 110 113 115 106 103 92 82 75 68 63 61 59 56 52 51 53 54 52 52 55 57 56 54 53 55 56 58 59 59 57 56
14 14 337 74 92 78 88 102 111 106 105 108 112 111 113 116 110 108 99 93 85 77 70 65 62 60 57 58 61 60 57 57 61 58 56 58 55 54 55 53 50 54 51 47
Wind_Speed_850mb
40 27 40 43 39 43 29 30 35 30 28 29 32 36 31 31 37 38 35 30 15 6 6 11 15 18 21 22 25 34 42 40 43 52 44 50 68 76 67 72 84 82 82 75
27 45 45 38 36 33 33 35 35 27 23 19 31 35 34 34 33 32 26 11 6 3 9 15 21 24 27 28 29 29 30 35 38 37 40 51 55 60 67 63 71 90 90 85
45 20 18 31 36 37 37 37 31 29 28 32 36 42 33 3 7 15 12 12 8 10 17 24 28 28 30 32 36 39 39 38 38 42 47 53 55 59 59 61 68 96 101 99
33 42 23 26 40 32 36 33 30 32 25 19 5 12 12 14 15 19 14 11 12 17 21 27 34 38 39 38 38 41 46 50 49 43 40 43 55 69 71 66 73 86 104 106
25 20 32 41 36 28 27 21 27 28 26 26 30 16 15 19 25 18 14 13 15 20 26 32 37 41 42 44 46 48 53 56 57 56 50 49 53 66 70 65 66 77 91 100
36 7 13 19 31 35 16 20 21 21 21 24 33 25 19 25 14 18 13 12 16 22 27 31 35 40 42 44 49 53 57 59 60 63 59 59 61 62 69 73 68 75 83 94
32 30 8 8 16 15 23 21 16 17 15 21 2 18 20 15 7 12 7 12 19 25 31 34 38 41 41 46 50 53 57 62 62 62 62 63 66 61 75 78 72 70 74 88
25 19 20 7 13 16 27 30 20 22 21 10 8 14 7 20 24 23 15 13 19 26 31 36 40 43 45 47 49 56 59 61 60 58 57 60 64 71 68 87 85 69 67 82
17 11 6 11 4 5 14 19 7 12 16 17 21 15 17 19 23 17 13 16 19 24 29 36 42 44 47 50 53 60 60 60 57 50 50 55 61 68 69 78 87 76 63 66
5 4 4 4 3 3 8 6 6 9 10 25 18 23 11 22 13 11 12 18 23 27 33 38 42 43 42 45 52 55 51 54 50 43 39 43 39 44 60 66 76 81 65 66
12 19 10 2 13 18 10 11 10 10 12 14 21 12 13 18 7 7 14 20 24 29 33 39 42 41 40 43 49 53 50 50 44 35 26 25 28 39 52 55 63 71 69 71
5 3 16 15 2 12 15 19 21 16 19 16 18 21 9 13 9 13 19 18 22 26 31 35 42 42 42 47 52 54 50 44 41 25 20 11 20 32 32 40 49 57 66 70
13 8 10 9 9 7 13 14 12 7 7 24 22 5 19 13 5 8 17 16 18 23 30 35 41 43 51 56 56 55 51 50 41 32 21 8 7 16 22 16 28 36 48 61
8 9 15 16 11 3 12 23 19 16 11 23 31 38 24 19 30 11 14 16 18 22 29 36 39 46 54 57 55 53 50 45 40 36 29 21 12 4 15 5 5 13 23 45
4 11 16 17 14 13 18 23 30 35 34 33 35 40 33 35 34 8 5 9 14 22 29 34 40 48 54 54 53 52 49 47 41 39 38 35 27 15 5 22 18 13 16 28
5 4 6 18 19 22 28 33 38 38 36 43 46 49 40 43 9 3 5 9 15 21 27 30 36 46 49 52 52 51 53 53 49 47 44 44 38 30 11 16 24 35 37 46
11 8 8 11 7 12 23 35 32 32 24 25 30 34 34 7 9 5 6 11 13 20 23 30 38 39 44 49 50 52 53 53 57 57 52 51 48 48 39 19 9 23 41 54
11 13 8 7 6 13 7 13 9 15 24 7 22 33 18 26 23 16 15 11 16 17 21 28 32 37 43 45 50 53 56 57 61 63 65 60 59 57 51 46 39 35 40 47
21 18 9 8 15 14 10 3 7 8 5 8 10 8 29 38 33 25 15 17 15 16 22 24 28 37 43 50 53 58 63 66 66 69 69 69 66 65 63 64 58 51 34 42
17 23 14 8 9 7 8 15 16 10 16 10 12 17 28 26 8 7 10 15 19 23 27 30 34 39 46 51 56 61 67 71 75 72 69 68 69 74 73 69 68 64 56 54
12 13 21 18 9 2 12 28 20 12 9 12 12 21 26 4 16 26 17 21 24 26 29 32 39 47 50 50 52 60 62 67 66 67 70 73 74 74 74 74 74 74 73 70
9 12 8 8 9 6 32 2 10 7 11 13 20 29 40 34 32 26 24 25 25 28 31 34 35 42 45 50 54 56 59 55 55 60 64 67 69 70 72 74 75 75 73 74
5 7 3 8 8 11 15 16 12 12 14 18 26 29 36 35 29 27 28 29 30 31 31 30 33 36 42 45 47 52 51 47 48 52 58 59 58 61 62 64 66 69 69 70
6 4 2 12 10 13 14 16 18 19 21 23 24 27 31 33 29 29 29 28 29 29 30 30 34 39 41 41 44 44 42 44 47 51 52 54 57 56 56 58 58 57 58 55
5 8 5 9 14 15 17 14 16 21 24 27 28 28 29 31 30 30 29 28 27 27 30 31 34 37 39 38 43 44 41 38 42 45 45 45 46 47 53 58 56 54 51 45
7 5 5 6 9 11 12 11 14 19 21 22 28 30 29 31 32 31 31 29 28 29 28 30 33 34 38 40 44 47 46 43 42 43 45 45 42 42 39 35 45 50 45 40
Wind_Direction_850mb
210 224 225 232 227 255 267 271 268 270 269 275 266 265 266 257 252 254 257 250 253 271 317 336 341 339 330 321 302 282 271 270 256 245 243 239 238 241 235 235 237 236 240 240
206 234 239 235 244 240 247 258 260 272 270 269 266 275 277 265 250 254 255 204 187 340 357 354 350 342 333 325 315 306 295 282 273 258 247 243 242 240 240 233 232 239 240 241
216 246 264 228 230 233 235 245 256 266 286 275 267 271 255 211 176 173 156 132 98 38 0 349 348 345 340 332 320 310 304 293 285 271 261 241 241 240 238 233 237 237 237 239
236 252 224 224 234 221 242 234 255 256 259 261 148 285 197 227 162 173 149 110 56 23 6 353 344 339 338 331 326 316 304 297 289 282 273 262 242 239 236 236 240 241 232 234
219 232 236 234 232 213 250 256 246 244 251 263 254 254 248 167 177 158 129 77 44 18 1 349 340 335 332 329 324 315 308 302 289 279 274 264 255 241 238 239 237 238 235 230
252 215 231 252 235 243 268 230 231 243 250 249 245 228 272 173 179 129 110 65 27 4 350 340 333 329 325 324 319 313 307 303 294 280 274 268 254 247 239 237 236 232 231 228
210 215 191 223 197 187 218 228 230 222 210 243 92 213 248 137 87 64 103 35 5 353 346 341 339 335 329 326 322 318 310 305 296 285 276 270 262 248 236 235 233 229 226 228
209 198 203 155 247 243 214 229 245 257 247 258 178 239 138 104 115 101 79 30 356 350 343 339 336 332 327 325 323 323 318 310 296 288 278 271 264 254 240 229 229 229 228 230
209 183 89 60 15 287 189 225 343 280 261 269 253 212 142 138 141 120 61 15 356 343 340 336 335 334 332 329 326 327 321 313 302 292 285 275 264 252 234 226 227 227 228 231
90 236 222 141 230 113 285 63 192 218 253 254 246 241 235 172 126 58 15 354 350 347 347 344 341 334 332 327 328 329 325 316 312 304 295 285 250 235 226 221 222 224 227 226
175 226 140 203 212 251 193 215 232 298 263 270 280 277 42 93 105 18 7 1 358 354 351 345 341 336 337 334 336 336 333 329 327 321 321 296 237 236 218 221 228 228 227 232
166 209 229 212 338 261 253 258 253 238 240 247 286 276 119 103 53 6 7 0 353 350 348 346 344 340 348 347 347 346 343 338 342 338 335 326 230 238 241 228 232 232 226 230
167 197 200 198 206 199 218 212 203 224 250 250 248 230 124 141 135 6 338 347 349 346 347 352 348 348 2 358 354 352 350 351 356 358 359 1 211 216 192 232 236 236 231 234
159 214 247 257 37 62 197 192 204 206 234 251 247 273 265 273 309 329 318 343 350 354 355 356 349 360 8 7 3 1 360 2 6 14 11 26 26 117 149 135 132 214 236 233
175 238 240 254 259 247 253 237 234 240 241 255 274 277 285 287 301 355 304 357 1 1 359 357 357 7 9 6 10 13 15 17 18 27 30 28 38 71 282 229 242 198 201 222
148 217 254 260 259 253 259 257 254 257 262 269 276 278 283 301 100 200 17 30 17 6 0 357 5 14 9 8 12 21 26 31 34 43 47 45 39 45 86 175 194 205 212 202
183 185 207 246 254 272 267 249 251 253 261 258 258 271 291 198 170 135 85 47 23 13 359 10 17 13 16 20 23 28 33 40 47 52 54 61 62 57 47 53 150 176 179 183
196 195 213 269 224 242 75 53 322 284 282 270 288 289 286 132 114 95 69 58 40 19 17 24 25 26 31 33 39 41 42 45 50 55 58 61 65 70 72 69 72 89 116 114
224 213 226 247 224 300 205 73 350 319 293 21 302 84 119 125 118 72 60 66 58 43 42 44 43 44 45 47 47 49 51 52 52 52 57 61 65 70 75 76 75 72 70 95
203 224 209 181 261 260 67 332 322 270 241 24 312 161 150 161 182 102 82 77 70 64 62 58 58 58 57 54 55 55 55 56 55 55 58 62 65 68 69 71 75 76 73 71
148 192 217 222 255 157 355 325 321 210 42 357 307 173 175 97 75 125 108 85 78 74 70 62 60 59 57 56 56 59 58 59 62 64 65 66 68 69 73 76 76 76 76 78
186 183 189 212 229 238 5 350 352 54 51 52 63 111 110 108 106 111 102 90 82 73 67 56 53 55 59 59 57 57 58 58 61 65 67 69 70 72 73 75 75 76 77 77
192 343 43 356 50 58 39 47 35 69 84 73 88 98 113 114 114 108 98 89 80 71 62 56 56 52 51 53 56 56 53 58 63 65 66 65 68 69 69 71 73 73 73 72
128 7 119 192 84 64 65 64 67 78 89 96 102 110 119 114 112 104 95 83 75 66 60 57 57 54 48 45 49 50 50 53 58 62 63 64 64 63 66 67 64 65 64 63
8 315 77 89 125 119 75 73 94 99 102 104 106 110 113 115 106 103 92 82 75 68 63 61 59 56 52 51 53 54 52 52 55 57 56 54 53 55 56 58 59 59 57 56
14 14 337 74 92 78 88 102 111 106 105 108 112 111 113 116 110 108 99 93 85 77 70 65 62 60 57 58 61 60 57 57 61 58 56 58 55 54 55 53 50 54 51 47